Weather Roundup
Issued by NWS Chicago, IL

Home | Current Version | Previous Version | Graphics & Text | Print | Product List | Glossary On
Versions: 1 2 3 4 5 6 7 8 9 10 11 12 13 14 15 16 17 18 19 20 21 22 23 24 25 26 27 28 29 30 31 32 33 34 35 36 37 38 39 40 41 42 43 44 45 46 47 48 49 50
298
NZUS59 KLOT 270203
HRRLOT

CHICAGO AREA WEATHER ROUNDUP
NATIONAL WEATHER SERVICE CHICAGO/ROMEOVILLE IL
900 PM CDT THU MAY 26 2016

NOTE: "FAIR" INDICATES FEW OR NO CLOUDS BELOW 12,000 FEET WITH NO
SIGNIFICANT WEATHER AND/OR OBSTRUCTIONS TO VISIBILITY.

* THESE STATIONS ARE NOT UNDER NWS QUALITY CONTROL. THEY ALSO MAY NOT
  REPORT WEATHER SUCH AS PRECIPITATION OR FOG.

ILZ005-006-012>014-019>023-270300-
NORTHEAST ILLINOIS

CITY           SKY/WX    TMP DP  RH WIND       PRES   REMARKS
OHARE          CLOUDY    73  65  75 S5        29.88R
MIDWAY         CLOUDY    81  61  50 CALM      29.88R HX  82
AURORA           N/A     77  68  73 CALM      29.89R
LANSING*       CLOUDY    74  64  69 S8        29.90R
WAUKEGAN       PTCLDY    68  63  84 CALM      29.88R
DUPAGE AIRPORT CLOUDY    73  65  75 CALM      29.88R
WHEELING       CLOUDY    75  65  70 CALM      29.89R
$$

WIZ051-052-058>065-066-070>072-270300-
SOUTHEAST WISCONSIN

CITY           SKY/WX    TMP DP  RH WIND       PRES   REMARKS
MILWAUKEE      CLOUDY    74  56  53 CALM      29.88R
KENOSHA*       CLEAR     74  63  68 S5        29.89R
RACINE*        CLOUDY    69  59  70 S3        29.90R
WAUKESHA       CLEAR     72  55  56 SW3       29.90R
$$

INZ001>003-010>013-019-020-270300-
NORTHWEST INDIANA

CITY           SKY/WX    TMP DP  RH WIND       PRES   REMARKS
GARY*          MOCLDY    79  72  78 VRB7      29.90R HX  82
MICHIGAN CITY* NOT AVBL
RENSSELAER*    NOT AVBL
VALPARAISO     PTCLDY    75  66  73 S6        29.93R
$$

LMZ740>746-270300-
SOUTHERN LAKE MICHIGAN

STATION/POSITION TIME  SKY/WX   TEMP WIND        PRES    VSBY
                                AIR  DIR/SP/G
                 (UTC)          (F)  (DEG/KT/KT) (MB)    (MI)
HARRISON CRIB    0100            72  140/  4/  5   N/A
BURNHAM HARBOR   0200            65   CALM  /  3   N/A
CALUMET HARBOR   0100                            1010.8R
BURNS HARBOR     0100            80  180/  5/  8 1012.2R
MICHIGAN CITY    0100            73   50/  2/  3   N/A
$$

ABBREVIATIONS USED IN REMARKS
   TC - TEMPERATURE IN CELSIUS
  WCI - WIND CHILL INDEX
   HX - HEAT INDEX
  VSB - VISIBILITY
$$




USA.gov is the U.S. government's official web portal to all federal, state and local government web resources and services.